Location: Northcutt
(34.7304°N, 84.4305°W)
Time: 01:59:46
(UTC+00:00)

SR - Pass Details

Date: 06 October 2022
Orbit: 577 x 874 km, 66.7° (Epoch: 06 December)

Event Time Altitude Azimuth Distance (km) Brightness Sun altitude
Rises 00:40:51 0° 186° (S) 3,377 ? -18.2°
Reaches altitude 10° 00:43:22 10° 180° (S) 2,473 ? -18.7°
Maximum altitude 00:48:47 43° 110° (ESE) 1,201 ? -19.8°
Enters shadow 00:50:46 33° 66° (ENE) 1,444 ? -20.2°
